Location: Fort Wayne
(41.1310°N, 85.1290°W)
Time: 22:11:10
(UTC-04:00)

BREEZE-M DEB (TANK) - Visible Passes

Search period start: 01 July 2016 00:00
Search period end: 11 July 2016 00:00
Orbit: 272 x 13344 km, 49.6° (Epoch: 01 July)

Date Brightness Start Highest point End Pass type
(mag) Time Alt. Az. Time Alt. Az. Time Alt. Az.
01 Jul 4.5 04:05:56 10° WNW 04:13:05 30° NNW 04:15:59 10° NE visible
02 Jul 4.8 00:29:33 10° SW 01:00:27 81° SSE 01:06:45 10° ENE visible
02 Jul 4.0 05:19:47 10° NW 05:23:24 24° N 05:25:24 10° ENE visible
02 Jul 6.6 21:00:58 10° S 21:42:12 30° SE 21:54:53 10° E visible
03 Jul 4.5 01:50:59 10° WSW 02:10:53 65° NNW 02:15:41 10° NE visible
03 Jul 6.2 22:11:26 10° SSW 22:55:39 47° SE 23:05:38 10° ENE visible
04 Jul 4.6 03:10:18 10° W 03:20:59 39° NNW 03:24:33 10° NE visible
04 Jul 5.3 23:29:44 10° SW 00:07:40 70° SE 00:15:09 10° ENE visible
05 Jul 4.4 04:25:56 10° WNW 04:31:13 27° N 04:33:39 10° ENE visible
06 Jul 4.7 00:51:51 10° WSW 01:18:28 79° NNW 01:24:08 10° ENE visible
06 Jul 3.1 05:38:09 10° NW 05:41:20 35° NNE 05:43:17 10° E visible
06 Jul 6.5 21:13:45 10° S 22:01:42 41° SE 22:13:27 10° ENE visible
07 Jul 4.7 02:13:12 10° W 02:28:38 49° NNW 02:32:57 10° NE visible
07 Jul 5.8 22:29:32 10° SSW 23:14:22 61° SE 23:23:15 10° ENE visible
08 Jul 4.6 03:30:56 10° WNW 03:38:48 32° NNW 03:41:51 10° NE visible
08 Jul 5.0 23:51:19 10° SW 00:25:38 88° SSE 00:32:20 10° ENE visible
09 Jul 3.8 04:44:44 10° NW 04:49:00 30° N 04:51:09 10° ENE visible
10 Jul 4.8 01:14:26 10° WSW 01:36:01 61° NNW 01:41:08 10° NE visible
10 Jul 6.3 21:29:33 10° SSW 22:20:29 54° SE 22:31:01 10° ENE visible
